FENGYUN 2H

Last updated on Mon Feb 10 2025 00:02:21 GMT+0000 (Coordinated Universal Time)

1 43491U 18050A 25040.57892308 -.00000137 00000+0 00000+0 0 9998 2 43491 1.7590 84.9717 0001351 201.8360 140.5776 1.00268071 24495
UTC large
Height (km)
Speed (km/s)
/
Latitude / Longitude
Inclination (degrees)
Orbital Period (minutes)
Azimuth
Elevation
Range (km)
Doppler Factor

Next 0 passes for location: London (51.5072 / 0.1276)

Sorry there are no passes over London.